| time (UTC) | temp F | wind direction | speed knots | gust knots | rain 1hr in | rain 24hr in | rain mn in | humidity % | barometer mb |
| 20260506004556 | 73 | 274 | 0.0 | 4.3 | 0.00 | 0.00 | 0.00 | 65 | 1006.6 |
| 20260506003057 | 74 | 286 | 0.9 | 3.5 | 0.00 | 0.00 | 0.00 | 65 | 1006.1 |
| 20260506001555 | 75 | 264 | 0.9 | 5.2 | 0.00 | 0.00 | 0.00 | 64 | 1005.5 |
| 20260506000055 | 76 | 355 | 0.0 | 3.5 | 0.00 | 0.00 | 0.00 | 64 | 1005.7 |
| 20260505234556 | 78 | 230 | 0.9 | 4.3 | 0.00 | 0.00 | 0.00 | 62 | 1005.5 |
| 20260505233053 | 79 | 360 | 0.0 | 2.6 | 0.00 | 0.00 | 0.00 | 61 | 1005.2 |
| 20260505231553 | 81 | 303 | 0.0 | 4.3 | 0.00 | 0.00 | 0.00 | 60 | 1005.1 |
| 20260505224553 | 83 | 63 | 0.0 | 2.6 | 0.00 | 0.00 | 0.00 | 55 | 1004.5 |
| 20260505223106 | 85 | 290 | 0.0 | 2.6 | 0.00 | 0.00 | 0.00 | 53 | 1004.5 |
| 20260505221551 | 86 | 5 | 0.0 | 3.5 | 0.00 | 0.00 | 0.00 | 47 | 1004.2 |
| 20260505220051 | 87 | 288 | 0.0 | 5.2 | 0.00 | 0.00 | 0.00 | 48 | 1004.0 |
| 20260505214550 | 89 | 281 | 0.9 | 5.2 | 0.00 | 0.00 | 0.00 | 45 | 1004.2 |
| 20260505213057 | 91 | 119 | 1.7 | 6.1 | 0.00 | 0.00 | 0.00 | 47 | 1003.9 |
| 20260505211550 | 91 | 80 | 0.0 | 3.5 | 0.00 | 0.00 | 0.00 | 48 | 1004.2 |
| 20260505210047 | 90 | 109 | 1.7 | 10.4 | 0.00 | 0.00 | 0.00 | 48 | 1004.2 |
| 20260505204545 | 90 | 118 | 2.6 | 9.6 | 0.00 | 0.00 | 0.00 | 50 | 1004.4 |
| 20260505203051 | 90 | 119 | 2.6 | 7.8 | 0.00 | 0.00 | 0.00 | 52 | 1004.5 |
| 20260505201543 | 90 | 114 | 4.3 | 8.7 | 0.00 | 0.00 | 0.00 | 50 | 1004.8 |
| 20260505200039 | 88 | 118 | 0.9 | 7.8 | 0.00 | 0.00 | 0.00 | 56 | 1004.9 |
| 20260505194537 | 87 | 120 | 3.5 | 7.0 | 0.00 | 0.00 | 0.00 | 57 | 1004.9 |
| 20260505193035 | 87 | 131 | 2.6 | 9.6 | 0.00 | 0.00 | 0.00 | 59 | 1005.2 |
| 20260505191532 | 86 | 137 | 2.6 | 7.8 | 0.00 | 0.00 | 0.00 | 61 | 1004.9 |
| 20260505190033 | 85 | 156 | 1.7 | 8.7 | 0.00 | 0.00 | 0.00 | 63 | 1005.0 |
| 20260505184526 | 83 | 145 | 3.5 | 9.6 | 0.00 | 0.00 | 0.00 | 64 | 1005.0 |
| 20260505183025 | 83 | 43 | 3.5 | 10.4 | 0.00 | 0.00 | 0.00 | 65 | 1005.3 |
| 20260505181523 | 83 | 125 | 2.6 | 7.0 | 0.00 | 0.00 | 0.00 | 66 | 1005.1 |
| 20260505180022 | 83 | 134 | 2.6 | 9.6 | 0.00 | 0.00 | 0.00 | 65 | 1005.3 |
| 20260505174521 | 82 | 122 | 2.6 | 8.7 | 0.00 | 0.00 | 0.00 | 66 | 1005.2 |
| 20260505173035 | 82 | 49 | 1.7 | 7.8 | 0.00 | 0.00 | 0.00 | 69 | 1005.1 |
| 20260505171516 | 81 | 135 | 1.7 | 11.3 | 0.00 | 0.00 | 0.00 | 70 | 1005.2 |
| 20260505170022 | 80 | 55 | 2.6 | 8.7 | 0.00 | 0.00 | 0.00 | 71 | 1005.4 |
| 20260505164527 | 79 | 112 | 2.6 | 10.4 | 0.00 | 0.00 | 0.00 | 71 | 1005.3 |
| 20260505163013 | 79 | 133 | 3.5 | 7.8 | 0.00 | 0.00 | 0.00 | 73 | 1005.1 |
| 20260505161506 | 78 | 30 | 1.7 | 11.3 | 0.00 | 0.00 | 0.00 | 75 | 1005.0 |
| 20260505153115 | 76 | 133 | 2.6 | 8.7 | 0.00 | 0.00 | 0.00 | 78 | 1005.1 |
| 20260505151601 | 76 | 126 | 1.7 | 7.8 | 0.00 | 0.00 | 0.00 | 79 | 1004.9 |
| 20260505124550 | 70 | 130 | 1.7 | 7.0 | 0.00 | 0.00 | 0.00 | 88 | 1004.5 |
| 20260505123048 | 70 | 134 | 2.6 | 9.6 | 0.00 | 0.00 | 0.00 | 88 | 1004.4 |
| 20260505121548 | 70 | 138 | 1.7 | 7.0 | 0.00 | 0.00 | 0.00 | 88 | 1004.1 |
| 20260505120047 | 70 | 47 | 1.7 | 7.8 | 0.00 | 0.00 | 0.00 | 88 | 1004.1 |
| 20260505114547 | 70 | 127 | 2.6 | 10.4 | 0.00 | 0.00 | 0.00 | 88 | 1004.2 |
| 20260505113046 | 70 | 55 | 1.7 | 9.6 | 0.00 | 0.00 | 0.00 | 88 | 1004.0 |
| 20260505111553 | 70 | 136 | 1.7 | 6.1 | 0.00 | 0.00 | 0.00 | 88 | 1003.9 |
| 20260505101541 | 70 | 51 | 1.7 | 7.8 | 0.00 | 0.00 | 0.00 | 87 | 1003.9 |
| 20260505100049 | 71 | 40 | 2.6 | 11.3 | 0.00 | 0.00 | 0.00 | 86 | 1004.0 |
| 20260505094538 | 71 | 44 | 2.6 | 8.7 | 0.00 | 0.00 | 0.00 | 85 | 1004.0 |
| 20260505093036 | 71 | 67 | 2.6 | 7.8 | 0.00 | 0.00 | 0.00 | 85 | 1004.2 |
| 20260505091550 | 71 | 61 | 1.7 | 10.4 | 0.00 | 0.00 | 0.00 | 84 | 1004.3 |
| 20260505090050 | 71 | 123 | 1.7 | 11.3 | 0.00 | 0.00 | 0.00 | 84 | 1004.3 |
| 20260505084537 | 71 | 144 | 1.7 | 9.6 | 0.00 | 0.00 | 0.00 | 83 | 1004.3 |
| 20260505083040 | 72 | 101 | 1.7 | 9.6 | 0.00 | 0.00 | 0.00 | 82 | 1004.3 |
| 20260505081548 | 72 | 127 | 1.7 | 8.7 | 0.00 | 0.00 | 0.00 | 81 | 1004.4 |
| 20260505080038 | 72 | 24 | 1.7 | 6.1 | 0.00 | 0.00 | 0.00 | 80 | 1004.4 |
| 20260505074526 | 72 | 80 | 1.7 | 5.2 | 0.00 | 0.00 | 0.00 | 79 | 1004.6 |
| 20260505073022 | 73 | 59 | 1.7 | 6.1 | 0.00 | 0.00 | 0.00 | 78 | 1005.0 |
| 20260505071526 | 73 | 57 | 1.7 | 7.0 | 0.00 | 0.00 | 0.00 | 77 | 1005.3 |
| 20260505070023 | 73 | 65 | 0.9 | 7.8 | 0.00 | 0.00 | 0.00 | 76 | 1005.5 |
| 20260505064515 | 73 | 62 | 2.6 | 7.8 | 0.00 | 0.00 | 0.00 | 75 | 1005.7 |
| 20260505063015 | 74 | 119 | 2.6 | 7.0 | 0.00 | 0.00 | 0.00 | 74 | 1005.8 |
| 20260505061523 | 74 | 55 | 1.7 | 10.4 | 0.00 | 0.00 | 0.00 | 73 | 1005.9 |
| 20260505060012 | 74 | 53 | 2.6 | 7.0 | 0.00 | 0.00 | 0.00 | 72 | 1006.0 |
| 20260505054518 | 74 | 54 | 0.9 | 7.8 | 0.00 | 0.00 | 0.00 | 72 | 1005.9 |
| 20260505053009 | 74 | 51 | 1.7 | 7.8 | 0.00 | 0.00 | 0.00 | 72 | 1005.9 |
| 20260505051506 | 74 | 55 | 1.7 | 7.0 | 0.00 | 0.00 | 0.00 | 72 | 1006.0 |
| 20260505041504 | 75 | 44 | 2.6 | 8.7 | 0.00 | 0.00 | 0.00 | 71 | 1006.1 |
| 20260505040003 | 75 | 60 | 2.6 | 7.0 | 0.00 | 0.00 | 0.00 | 71 | 1006.3 |
| 20260505034503 | 75 | 42 | 2.6 | 6.1 | 0.00 | 0.00 | 0.00 | 70 | 1006.2 |
| 20260505033003 | 75 | 33 | 2.6 | 7.8 | 0.00 | 0.00 | 0.00 | 70 | 1006.1 |
| 20260505031502 | 75 | 69 | 1.7 | 7.8 | 0.00 | 0.00 | 0.00 | 70 | 1006.3 |
| 20260505030002 | 75 | 41 | 2.6 | 7.8 | 0.00 | 0.00 | 0.00 | 70 | 1006.3 |
| 20260505024504 | 75 | 26 | 1.7 | 5.2 | 0.00 | 0.00 | 0.00 | 69 | 1006.5 |
| 20260505023001 | 75 | 55 | 0.9 | 6.1 | 0.00 | 0.00 | 0.00 | 68 | 1006.4 |
| 20260505021613 | 75 | 52 | 1.7 | 5.2 | 0.00 | 0.00 | 0.00 | 68 | 1006.2 |
| 20260505014600 | 76 | 54 | 1.7 | 7.8 | 0.00 | 0.00 | 0.00 | 67 | 1006.2 |
| 20260505013101 | 76 | 46 | 2.6 | 6.1 | 0.00 | 0.00 | 0.00 | 66 | 1006.2 |
| 20260505011559 | 76 | 50 | 4.3 | 9.6 | 0.00 | 0.00 | 0.00 | 65 | 1006.1 |
| 20260505010058 | 77 | 33 | 1.7 | 7.8 | 0.00 | 0.00 | 0.00 | 64 | 1006.2 |